Date,TemperatureHighF,TemperatureAvgF,TemperatureLowF,DewpointHighF,DewpointAvgF,DewpointLowF,HumidityHigh,HumidityAvg,HumidityLow,PressureMaxIn,PressureMinIn,WindSpeedMaxMPH,WindSpeedAvgMPH,GustSpeedMaxMPH,PrecipitationSumIn
2014-1-1,128.5,44.8,41.7,43.0,39.4,27.4,83,81,80,30.06,29.56,9,8,9,0.04
2014-1-2,48.4,44.8,32.0,43.5,32.7,-40.6,85,68,3,29.80,29.56,10,8,11,0.98
2014-1-3,44.4,41.7,41.5,33.2,32.9,27.4,72,71,51,29.77,29.56,9,8,9,0.00
2014-1-4,44.4,41.5,41.5,33.2,33.2,27.4,72,72,72,29.77,29.56,9,8,9,0.00
2014-1-5,44.4,41.5,41.5,33.2,33.2,27.4,72,72,72,29.77,29.56,9,8,9,0.00
2014-1-6,44.4,41.5,41.5,33.2,33.2,27.4,72,72,51,29.77,29.56,9,8,9,0.00
2014-1-7,44.4,41.5,41.5,33.2,33.2,27.4,72,72,72,29.77,29.56,9,8,9,0.00
2014-1-8,44.4,41.5,41.5,33.2,33.2,27.4,72,72,72,29.77,29.56,9,8,9,0.00
2014-1-9,44.4,41.5,41.5,33.2,33.2,27.4,72,72,72,29.77,29.56,9,8,9,0.00
2014-1-10,44.4,41.6,41.5,33.2,33.1,27.4,72,72,51,29.77,29.56,9,8,9,0.00
2014-1-11,50.5,45.8,32.0,44.6,36.6,27.4,85,71,51,29.77,28.91,19,8,19,0.08
2014-1-12,48.9,42.8,32.0,44.1,34.1,-40.6,84,77,3,30.03,29.56,12,8,12,0.51
2014-1-13,50.2,47.4,32.0,44.9,35.5,-58.7,84,74,1,30.33,29.56,9,8,9,0.08
2014-1-14,54.0,47.3,39.2,46.7,41.2,27.4,82,79,51,30.39,29.56,9,8,9,0.00
2014-1-15,48.4,39.9,34.3,42.8,35.2,27.4,85,83,81,30.30,29.56,9,8,9,0.00
2014-1-16,51.3,40.8,32.0,46.3,33.1,-35.6,86,78,4,30.15,29.56,9,8,9,0.00
2014-1-17,56.3,40.5,32.0,41.2,28.9,-40.6,85,72,3,29.97,29.56,9,8,9,0.00
2014-1-18,50.5,43.3,32.0,41.7,37.1,27.4,85,79,69,29.97,29.56,9,8,9,0.00
2014-1-19,49.1,45.1,32.0,42.8,36.0,-35.6,83,73,4,29.97,29.56,9,8,9,0.00
2014-1-20,53.1,40.4,32.0,43.7,21.8,-40.6,85,59,3,29.94,29.56,9,8,9,0.00
2014-1-21,49.8,43.4,36.9,40.9,34.5,27.4,79,71,55,30.03,29.56,9,8,9,0.00
2014-1-22,52.5,45.9,32.0,44.8,38.7,-35.6,81,77,4,30.15,29.56,9,8,9,0.08
2014-1-23,44.4,37.4,37.2,31.9,31.7,27.4,81,80,51,30.09,29.56,9,8,9,0.00
2014-1-24,44.4,37.2,37.2,31.9,31.9,27.4,81,81,81,30.09,29.56,9,8,9,0.00
2014-1-25,44.4,37.2,37.2,31.9,31.9,27.4,81,81,51,30.09,29.56,9,8,9,0.00
2014-1-26,44.4,37.3,37.2,31.9,31.9,27.4,81,81,51,30.09,29.56,9,8,9,0.00
2014-1-27,44.4,37.8,37.2,31.9,31.5,27.4,81,79,51,30.09,29.56,9,8,9,0.00
2014-1-28,44.4,37.4,37.2,31.9,31.8,27.4,81,80,51,30.09,29.56,9,8,9,0.00
2014-1-29,37.2,37.2,37.2,31.9,31.9,31.9,81,81,81,30.09,30.09,8,8,0,0.00
2014-1-30,44.4,37.2,37.2,31.9,31.9,27.4,81,81,81,30.09,29.56,9,8,9,0.00
2014-2-5,44.4,27.7,27.7,1.6,1.6,1.6,32,32,32,29.94,29.56,9,8,9,0.00
2014-2-6,44.4,27.7,27.7,1.6,1.6,1.6,32,32,32,29.94,29.56,9,8,9,0.00
2014-2-8,44.4,33.3,33.3,5.1,5.1,5.1,30,30,30,29.62,29.56,9,8,9,0.00
2014-2-9,44.4,33.3,33.3,5.1,5.1,5.1,30,30,30,29.62,29.56,9,8,9,0.00
2014-2-10,44.4,33.3,33.3,5.1,5.1,5.1,30,30,30,29.62,29.56,9,8,9,0.00
2014-2-11,48.2,39.4,33.3,43.4,20.7,5.1,84,52,30,29.62,29.29,9,8,9,0.39
2014-2-12,51.6,45.4,13.5,44.5,32.4,-58.7,84,65,1,29.56,29.00,9,8,9,0.43
2014-2-13,52.5,47.4,43.9,42.8,37.4,27.4,83,69,50,29.74,29.32,10,8,11,0.12
2014-2-14,52.0,47.3,32.0,44.1,36.7,-58.7,84,70,1,29.62,29.15,9,8,9,0.20
2014-2-15,47.3,41.5,32.0,42.4,34.3,25.3,85,76,51,29.56,28.79,9,8,9,1.38
2014-2-16,46.2,39.8,32.0,42.0,19.9,-47.5,85,64,2,29.56,29.26,19,8,19,0.16
2014-2-17,48.4,44.4,32.0,39.7,35.0,-40.6,81,72,3,29.56,29.32,9,8,9,0.08
2014-2-18,50.5,43.2,32.0,45.9,29.7,-40.5,84,67,3,29.56,29.15,10,8,11,0.59
2014-2-19,45.5,40.7,32.0,40.1,16.6,-40.6,84,51,3,29.74,29.47,9,8,9,0.35
2014-2-20,48.9,44.5,40.5,40.6,33.7,24.1,84,67,45,29.85,29.59,8,8,8,0.12
2014-2-21,45.3,36.8,13.5,32.8,22.0,-58.7,80,61,1,29.91,29.56,9,8,9,0.04
2014-2-22,44.4,38.0,32.2,36.4,32.6,26.7,84,81,77,29.85,29.56,9,8,9,1.18
2014-2-23,44.4,38.8,13.5,37.8,24.2,-40.6,85,70,3,29.62,29.53,9,8,9,1.14
2014-2-24,44.4,39.8,32.0,36.8,30.8,-35.6,83,75,4,29.65,29.53,9,8,9,0.75
2014-2-25,44.4,40.9,40.6,36.2,36.1,27.4,83,83,82,29.65,29.56,9,8,9,0.04
2014-3-3,50.2,44.4,32.0,43.6,31.1,-40.6,83,69,3,29.62,29.32,9,8,9,0.16
2014-3-4,51.8,43.5,32.0,45.8,29.5,-58.7,82,70,2,29.65,29.47,9,8,9,0.35
2014-3-5,50.4,48.8,47.5,45.4,43.6,27.4,83,82,82,29.56,29.24,9,8,9,1.06
2014-3-6,50.4,47.6,32.0,43.5,35.5,-47.5,82,73,2,29.77,29.50,8,8,8,1.22
2014-3-7,56.1,47.7,32.0,46.4,39.0,-40.6,82,74,3,29.97,29.77,8,8,8,0.04
2014-3-8,44.4,38.8,36.5,35.9,32.2,27.4,83,77,51,29.83,29.38,9,8,9,0.12
2014-3-9,44.4,44.4,44.4,27.4,27.4,27.4,51,51,51,29.71,29.56,9,8,9,0.12
2014-3-10,44.4,39.2,37.4,31.3,30.3,27.4,78,71,51,29.68,29.56,9,8,9,0.00
2014-3-11,44.4,28.1,25.3,23.0,22.8,20.6,82,80,80,30.18,29.56,9,8,9,0.00
2014-3-12,46.8,32.6,21.9,34.7,12.9,-42.8,85,57,4,30.15,29.88,8,8,8,0.00
2014-3-13,44.4,38.8,32.0,33.0,28.6,25.2,81,67,51,29.88,29.56,9,8,9,0.12
2014-3-14,44.4,36.7,21.9,35.5,22.4,-42.8,83,70,4,29.62,29.53,9,8,9,0.59
2014-3-15,44.4,40.4,40.1,35.9,35.3,27.4,83,82,51,29.91,29.85,8,8,8,0.59
2014-3-16,44.4,36.4,21.9,35.9,24.9,-65.0,83,71,2,29.91,29.56,10,8,10,1.18
2014-3-17,44.4,35.7,32.7,27.4,16.1,9.6,76,45,30,30.06,29.56,15,8,15,0.00
2014-3-18,45.3,37.1,21.9,33.7,23.0,-65.0,80,67,1,30.00,29.56,9,8,9,0.12
2014-3-19,44.4,36.3,21.9,31.8,19.4,-65.0,95,58,1,29.91,29.56,13,8,13,0.43
2014-3-20,44.4,34.1,25.3,27.4,19.7,15.3,79,57,39,30.09,29.56,9,8,9,0.04
2014-3-21,44.4,30.3,21.9,27.1,4.1,-47.7,79,46,3,30.06,29.56,9,8,9,0.00
2014-3-22,44.4,30.0,21.9,27.8,13.2,-47.7,82,62,3,30.00,29.56,9,8,9,0.08
2014-3-23,46.8,31.3,21.9,31.4,8.5,-65.0,83,54,1,30.03,29.56,9,8,9,0.00
2014-3-24,55.4,38.4,21.9,27.4,11.8,-47.7,54,39,3,29.91,29.56,9,8,9,0.00
2014-3-25,118.6,44.3,21.9,99.9,30.7,-42.8,88,69,4,29.56,29.18,14,8,15,0.39
2014-3-26,43.3,38.1,21.9,34.5,30.4,-47.7,80,75,3,29.26,29.20,8,8,8,0.35
2014-3-27,57.9,43.6,32.0,44.6,31.4,-47.5,84,66,2,29.56,29.24,9,8,9,0.00
2014-3-28,55.8,48.2,32.0,47.1,32.1,-40.6,80,66,3,29.56,29.29,9,8,9,0.51
2014-3-29,56.1,50.8,32.0,45.1,41.6,27.7,84,71,56,29.50,29.29,8,8,8,0.63
2014-3-30,54.9,46.3,32.0,41.0,34.0,-40.6,77,64,3,29.71,29.50,9,8,9,0.16
2014-3-31,59.2,46.0,32.0,36.3,29.8,-40.6,86,57,3,29.65,29.44,12,8,12,0.04
2014-4-1,58.6,44.4,32.0,38.6,20.9,-40.6,78,47,3,29.65,29.41,9,8,9,0.00
2014-4-2,56.3,47.1,32.0,41.0,32.0,-58.7,82,61,3,29.71,29.56,9,8,9,0.00
2014-4-3,52.5,47.8,32.0,43.8,38.5,-47.5,80,72,2,29.68,29.50,9,8,9,0.31
2014-4-4,57.2,48.9,32.0,42.7,36.4,-40.6,80,65,3,29.68,29.56,9,8,9,0.24
2014-4-5,52.7,48.1,32.0,46.4,38.3,-40.6,79,73,3,29.80,29.56,9,8,9,0.59
2014-4-6,61.3,48.6,32.0,45.5,28.7,-47.5,82,59,2,30.00,29.56,9,8,9,0.00
2014-4-7,63.7,51.3,32.0,47.4,33.3,-58.7,80,63,1,30.00,29.56,9,8,9,0.04
2014-4-8,59.0,50.6,13.5,46.3,34.9,-47.5,81,61,2,29.91,29.56,9,8,9,0.20
2014-4-9,55.4,48.1,32.0,40.8,29.5,-58.7,79,54,1,30.00,29.56,12,8,12,0.00
2014-4-10,57.0,47.4,37.6,40.5,33.5,27.4,79,61,36,30.00,29.56,9,8,9,0.00
2014-4-11,56.7,50.2,32.0,45.7,38.8,5.7,95,66,31,29.91,29.56,9,8,9,0.04
2014-4-12,57.4,49.3,32.0,39.4,30.5,-47.5,75,53,2,29.91,29.56,10,8,10,0.00
2014-4-13,63.5,37.8,-40.2,36.9,22.1,-61.0,85,64,3,30.00,29.56,9,8,9,0.00
2014-4-14,55.8,43.9,32.0,43.6,26.7,-40.6,97,63,3,29.91,29.56,9,8,9,0.00
2014-4-15,54.1,47.7,32.0,45.2,32.1,-40.6,80,65,3,29.88,29.74,8,8,8,0.24
2014-4-16,50.2,47.6,32.0,44.5,39.3,-47.5,83,78,2,29.74,29.56,9,8,9,0.16
2014-4-17,53.4,48.8,32.0,46.0,39.9,-47.5,81,75,2,29.65,29.41,8,8,8,1.02
2014-4-18,57.7,47.8,32.0,38.9,30.1,-35.6,75,55,4,29.83,29.56,9,8,9,0.00
2014-4-19,54.1,49.1,33.1,45.3,38.7,7.1,78,68,33,29.85,29.41,9,8,9,0.28
2014-4-20,54.9,48.3,32.0,44.4,34.6,-40.6,81,67,3,29.97,29.83,8,8,8,0.08
2014-4-21,55.9,47.6,32.0,43.9,33.4,-58.7,80,63,1,29.83,29.56,9,8,9,0.71
2014-4-22,47.5,42.4,39.2,41.6,36.9,27.4,81,81,80,29.59,29.56,9,8,9,0.71
2014-4-23,60.1,49.8,32.0,42.4,31.4,-40.6,80,56,3,29.56,29.24,9,8,9,1.10
2014-4-24,58.5,51.4,33.1,46.7,39.3,5.0,82,65,30,29.62,29.20,9,8,9,0.20
2014-4-25,57.0,46.2,32.0,40.3,31.8,-47.5,80,61,2,29.65,29.56,9,8,9,0.04
2014-4-26,58.1,44.3,32.0,39.8,31.3,-40.6,80,66,3,29.59,29.29,9,8,9,0.55
2014-4-27,57.7,46.1,32.0,42.0,22.2,-58.7,83,52,1,29.83,29.29,9,8,9,0.24
2014-4-28,62.1,49.7,40.6,42.0,36.1,31.6,79,62,33,30.06,29.83,8,8,8,0.00
2014-4-29,73.8,53.3,13.5,42.3,15.5,-47.5,68,30,2,30.18,29.56,9,8,9,0.00
2014-5-1,44.4,44.4,44.4,27.4,27.4,27.4,51,51,51,29.85,29.85,8,8,0,0.00
2014-5-3,57.6,50.7,32.0,49.0,31.4,-40.6,76,61,3,29.50,29.38,8,8,8,0.31
2014-5-4,63.5,53.6,32.0,48.0,38.2,-58.7,79,64,1,29.56,29.32,9,8,9,0.31
2014-5-5,65.5,55.4,32.0,48.8,39.1,-58.7,79,60,1,29.80,29.53,9,8,9,0.28
2014-5-6,62.8,50.7,32.0,46.6,35.9,5.7,83,61,31,29.83,29.56,9,8,9,0.00
2014-5-7,62.8,50.1,38.8,40.8,36.6,27.4,83,63,36,33.46,29.56,9,8,9,0.00
2014-5-8,56.5,46.1,32.0,48.0,18.9,-58.7,80,55,1,29.59,29.33,8,8,8,0.67
2014-5-9,62.8,49.4,32.0,44.8,22.7,-58.7,80,51,1,29.74,29.41,9,8,9,0.24
2014-5-10,65.1,52.3,33.1,44.5,36.3,5.0,79,58,30,30.00,29.56,9,8,9,0.00
2014-5-11,64.8,51.2,32.0,46.1,31.5,-35.6,84,55,4,30.06,29.56,9,8,9,0.00
2014-5-12,78.8,58.8,43.9,50.4,31.3,13.0,82,45,10,30.09,29.56,9,8,9,0.00
2014-5-13,77.4,64.5,33.1,42.0,31.7,5.0,58,34,10,30.12,29.56,9,8,9,0.00
2014-5-14,84.4,59.9,32.0,50.5,27.2,-40.6,79,40,3,30.06,29.56,10,8,10,0.00
2014-5-15,80.6,60.2,32.0,50.0,35.1,-58.7,75,46,1,29.83,29.56,9,8,9,0.00
2014-5-16,67.8,59.6,32.0,47.5,40.7,-35.6,70,52,4,29.86,29.56,9,8,9,0.00
2014-5-17,68.5,58.8,32.0,50.0,41.5,-47.5,78,56,2,29.83,29.56,9,8,9,0.00
2014-5-18,68.4,54.1,32.0,47.8,38.0,7.7,84,57,34,29.62,29.50,9,8,9,0.00
2014-5-19,82.6,56.6,32.0,51.6,40.7,-58.7,83,60,1,29.80,29.56,9,8,9,0.00
2014-5-20,63.9,54.2,32.0,47.0,32.4,-58.7,71,50,1,29.89,29.56,9,8,9,0.00
2014-5-21,63.7,53.8,32.0,43.3,28.6,-58.7,60,45,1,29.92,29.56,9,8,9,0.00
2014-5-28,70.0,55.8,32.0,48.7,32.5,-40.6,76,46,3,29.89,29.56,9,8,9,0.00
2014-5-29,66.9,56.9,45.9,46.7,41.2,-35.6,80,59,30,29.98,29.56,9,8,9,0.08
2014-5-30,64.2,47.3,32.0,44.3,33.0,-47.5,97,63,2,29.89,29.56,9,8,9,0.00
2014-5-31,70.2,58.9,50.0,49.0,44.4,38.8,79,61,35,29.89,29.74,8,8,8,0.00
2014-6-1,68.0,59.6,32.0,46.6,40.8,-58.7,86,54,1,29.86,29.56,9,8,9,0.00
2014-6-2,67.1,52.6,32.0,47.4,35.8,-47.5,83,59,2,29.74,29.56,9,8,9,0.00
2014-6-3,69.1,58.6,32.0,45.8,37.7,-40.6,72,51,3,29.86,29.56,9,8,9,0.00
2014-6-4,66.0,56.3,32.0,44.6,32.4,-58.7,75,46,1,29.95,29.56,9,8,9,0.00
2014-6-5,67.8,57.4,44.4,46.0,41.2,27.4,80,57,34,29.89,29.56,9,8,9,0.00
2014-6-6,64.8,57.4,48.6,51.8,43.4,36.2,80,61,36,29.92,29.80,8,8,10,0.00
2014-6-7,64.0,56.5,32.0,50.2,44.0,-58.7,80,69,1,29.98,29.56,9,8,9,0.04
2014-6-8,67.1,52.7,32.0,50.1,22.6,-47.5,79,48,2,29.98,29.56,9,8,9,0.04
2014-6-9,66.4,57.2,32.0,47.7,36.3,-58.7,79,53,1,29.92,29.56,9,8,9,0.00
2014-6-10,69.6,50.9,-4.0,46.4,37.0,-4.0,100,64,34,29.92,29.56,9,8,9,0.00
2014-6-13,62.6,58.8,56.3,49.2,44.0,27.4,77,59,43,29.77,29.56,9,8,9,0.00
2014-6-17,64.6,55.3,44.4,43.0,34.8,27.4,61,46,41,29.89,29.56,9,8,9,0.00
2014-6-18,64.4,58.1,32.0,50.4,39.5,-40.6,75,55,3,29.86,29.56,9,8,9,0.00
2014-6-19,60.3,55.2,32.0,53.2,40.3,-47.5,79,68,2,29.77,29.56,9,8,9,0.47
2014-6-20,67.5,50.6,32.0,50.2,24.8,-58.7,83,50,1,29.98,29.74,8,8,8,0.00
2014-6-21,51.1,50.6,46.2,44.9,43.4,27.4,82,77,75,29.89,29.56,9,8,9,0.00
2014-6-22,51.1,50.6,44.4,43.4,42.2,27.4,75,73,51,29.86,29.56,9,8,9,0.00
2014-6-23,51.1,51.1,51.1,43.4,43.4,27.4,75,75,75,29.86,29.56,9,8,9,0.00
2014-6-24,74.3,63.5,32.0,54.7,49.8,27.4,84,63,44,29.86,29.56,9,8,9,0.00
2014-7-3,70.9,59.6,32.0,52.1,33.5,-40.6,77,45,3,29.89,29.56,9,8,9,0.04
2014-7-4,66.2,56.1,32.0,52.3,40.2,-58.7,83,62,1,29.80,29.56,9,8,9,0.00
2014-7-5,67.8,62.1,54.3,54.7,51.6,27.4,80,69,60,29.92,29.56,9,8,9,0.12
2014-7-6,68.9,59.9,30.9,59.6,49.3,-58.7,79,69,1,29.98,29.56,9,8,9,0.31
2014-7-7,66.6,58.9,32.0,55.6,40.8,-58.7,80,63,1,29.92,29.56,10,8,11,0.00
2014-7-8,69.3,59.5,32.0,52.7,46.7,-35.6,84,66,4,29.89,29.77,8,8,8,0.00
2014-7-9,69.6,61.5,32.0,50.8,42.2,-40.6,83,53,3,29.83,29.56,9,8,9,0.00
2014-7-10,73.2,60.5,32.0,51.2,46.8,-35.6,79,63,4,29.83,29.56,9,8,9,0.00
2014-7-11,76.1,61.6,32.0,55.5,46.2,-47.5,82,62,2,29.86,29.56,9,8,9,0.00
2014-7-12,70.0,60.1,44.4,51.6,47.5,27.4,78,65,43,29.95,29.56,9,8,9,0.00
2014-7-13,73.8,58.4,32.0,56.1,46.3,27.4,83,66,37,29.89,29.56,9,8,9,0.00
2014-7-14,67.5,57.2,32.0,52.1,38.1,-58.7,79,60,1,29.89,29.56,9,8,9,0.00
2014-7-15,67.5,55.1,32.0,51.8,35.0,-58.7,79,59,1,29.86,29.56,9,8,9,0.00
2014-7-16,76.1,57.6,32.0,50.7,39.1,-47.5,79,60,2,29.80,29.56,9,8,9,0.00
2014-7-17,69.1,57.5,32.0,50.6,37.2,-47.5,81,53,2,29.83,29.56,9,8,9,0.00
2014-7-18,59.5,59.5,59.5,52.7,52.7,52.7,78,78,78,29.83,29.83,8,8,0,0.00
2014-7-19,59.5,59.4,44.4,52.7,52.6,27.4,78,78,51,29.83,29.56,9,8,9,0.00
2014-7-20,59.5,59.5,59.5,52.7,52.7,52.7,78,78,78,29.83,29.83,8,8,0,0.00
2014-7-21,59.5,57.3,44.4,52.7,49.0,27.4,78,74,51,29.83,29.56,9,8,9,0.00
2014-7-22,59.5,58.9,44.4,52.7,51.6,27.4,78,77,51,29.83,29.56,9,8,9,0.00
2014-7-23,59.5,59.5,59.5,52.7,52.7,27.4,78,78,78,29.83,29.56,9,8,9,0.00
2014-7-24,59.5,58.4,44.4,52.7,50.9,27.4,78,76,51,29.83,29.56,9,8,9,0.00
2014-7-28,69.3,59.8,32.0,52.1,47.0,27.4,83,64,44,29.56,22.71,12,8,12,0.00
2014-7-29,69.6,53.8,32.0,54.6,36.1,-47.5,83,62,2,29.56,25.87,12,8,12,0.00
2014-7-30,69.4,58.8,30.9,53.8,44.3,-17.6,82,62,11,29.56,20.61,9,8,9,0.00
2014-7-31,70.9,56.9,30.9,52.3,40.9,-17.6,83,59,11,29.56,22.74,9,8,9,0.00
2014-8-1,72.0,61.1,32.0,55.3,42.9,-35.6,78,54,4,29.56,28.88,9,8,9,0.00
2014-8-2,72.0,57.0,32.0,56.5,38.7,-47.5,80,60,2,29.56,28.76,9,8,9,0.00
2014-8-3,73.6,61.7,30.9,50.9,36.1,-19.4,76,43,10,29.56,28.88,9,8,9,0.00
2014-8-4,72.1,71.4,44.4,47.1,46.6,27.4,51,41,41,29.56,29.24,9,8,9,0.00
2014-8-5,72.1,70.2,44.4,47.1,45.7,27.4,51,42,41,29.56,29.24,9,8,9,0.00
2014-8-6,72.1,70.3,44.4,47.1,45.8,27.4,51,42,41,29.56,29.24,9,8,9,0.00
2014-8-7,72.1,72.1,72.1,47.1,47.1,27.4,41,41,41,29.56,29.24,9,8,9,0.00
2014-8-13,66.6,62.3,30.9,58.8,53.8,-2.6,80,74,23,29.56,28.97,9,8,9,0.00
2014-8-14,63.0,57.6,44.4,55.6,47.9,27.4,79,71,51,29.56,29.12,9,8,9,0.00
2014-8-16,70.2,62.1,32.0,55.3,49.9,-58.7,79,66,1,29.39,29.21,8,8,8,0.00
2014-8-17,69.3,58.5,32.0,52.7,42.9,-35.6,80,63,4,29.56,29.21,9,8,9,0.00
2014-8-18,73.2,61.0,32.0,54.2,47.8,27.4,84,64,38,29.56,29.03,9,8,9,0.00
2014-8-19,69.6,56.7,22.5,54.8,39.0,-47.5,81,59,2,29.56,28.97,9,8,9,0.00
2014-8-20,71.8,59.8,32.0,50.5,38.2,-58.7,74,52,1,29.56,29.03,9,8,9,0.00
2014-8-21,69.6,58.1,32.0,49.3,35.3,-58.7,77,53,1,29.56,29.18,9,8,9,0.00
2014-8-22,68.5,56.0,30.9,53.0,38.1,-58.7,79,58,1,29.56,29.15,9,8,9,0.00
2014-8-23,68.2,56.3,30.9,52.2,41.0,-58.7,80,63,1,29.56,29.24,9,8,9,0.00
2014-8-24,70.2,59.0,30.9,54.1,45.1,-58.7,84,66,1,29.56,29.15,9,8,9,0.00
2014-8-25,72.3,57.8,32.0,58.4,42.3,-40.6,96,61,3,29.56,29.18,9,8,9,0.00
2014-8-26,71.1,61.3,32.0,53.9,47.8,-47.5,79,65,2,29.56,29.21,9,8,9,0.00
2014-8-27,68.4,60.6,32.0,54.6,49.2,-58.7,79,68,2,29.56,29.24,9,8,9,0.00
2014-8-28,61.7,46.6,44.4,54.2,30.8,27.4,77,54,51,29.56,29.33,9,9,9,0.04
2014-8-30,71.2,63.4,32.0,55.5,46.4,-47.5,78,58,2,29.56,29.12,9,8,9,0.04
2014-8-31,70.9,62.2,30.9,55.3,48.3,-35.6,81,63,10,29.56,29.24,9,8,9,0.00
2014-9-1,59.2,56.4,53.2,52.0,49.6,27.4,80,78,77,29.56,29.30,9,8,9,0.00
2014-9-4,73.9,61.2,32.0,43.2,32.7,-58.7,63,40,1,29.56,29.39,9,8,9,0.00
2014-9-5,84.0,63.9,32.0,46.0,36.6,-35.6,81,46,4,29.56,29.30,9,8,9,0.00
2014-9-6,87.4,63.0,13.5,46.8,26.8,-59.4,70,34,1,29.56,29.24,9,8,9,0.00
2014-9-7,65.5,59.8,32.0,52.3,46.1,-40.6,77,63,3,29.56,29.12,9,8,9,0.00
2014-9-8,65.8,56.9,32.0,53.4,40.6,-58.7,80,66,1,29.56,29.12,9,8,9,0.00
2014-9-9,70.3,55.3,32.0,51.2,38.7,-47.5,82,63,2,29.56,29.21,9,8,9,0.00
2014-9-10,73.8,58.4,32.0,47.4,23.0,-58.7,74,38,1,29.59,29.39,9,8,9,0.00
2014-9-11,74.5,60.2,32.0,28.0,15.1,-35.6,85,20,4,29.59,29.47,9,8,9,0.00
2014-9-12,80.8,58.6,32.0,34.8,16.7,-35.6,85,29,4,29.56,29.24,9,8,9,0.00
2014-9-13,82.9,59.5,32.0,39.1,26.4,-58.7,73,38,1,29.56,29.12,9,8,9,0.00
2014-9-14,78.3,60.9,44.1,47.5,30.9,15.8,80,41,10,29.56,29.03,9,8,9,0.00
2014-9-15,82.4,59.6,44.4,45.0,35.1,15.2,82,52,9,29.56,29.00,9,8,9,0.00
2014-9-16,78.8,60.0,32.0,52.9,39.1,-58.7,74,53,1,29.56,29.12,9,8,9,0.00
2014-9-17,60.1,58.5,56.8,52.1,51.7,27.4,79,78,73,29.56,29.03,9,8,9,0.00
2014-9-18,58.6,58.1,44.4,52.1,51.2,27.4,79,78,51,29.56,29.03,9,8,9,0.00
2014-9-19,58.6,58.6,58.6,52.1,52.1,27.4,79,79,79,29.56,29.03,9,8,9,0.00
2014-9-20,58.6,58.2,44.4,52.1,51.4,27.4,79,78,51,29.56,29.03,9,8,9,0.00
2014-9-23,59.7,50.1,30.9,52.8,25.4,-40.6,78,54,3,29.56,28.94,9,8,9,0.16
2014-9-24,69.4,62.9,30.9,58.9,51.3,-40.6,80,67,3,29.56,28.97,9,8,9,0.00
2014-9-25,69.6,60.8,44.4,52.8,50.3,27.4,77,69,43,29.56,29.15,9,8,9,0.35
2014-9-26,69.6,60.0,30.9,56.7,47.7,-35.6,80,66,4,29.56,29.15,9,8,9,0.35
2014-9-27,64.9,53.3,32.0,55.6,44.9,27.4,83,74,51,29.56,29.35,9,8,9,0.00
2014-9-28,63.9,52.9,32.0,56.5,42.1,-48.2,83,69,2,29.56,29.27,9,8,9,0.00
2014-9-29,63.9,52.6,30.9,51.9,39.1,-15.9,80,65,12,29.56,29.18,9,8,9,0.12
2014-9-30,65.3,55.7,32.0,51.6,33.3,-58.7,81,52,1,29.59,29.41,10,8,11,0.12
2014-10-1,64.0,56.1,32.0,49.9,43.3,27.4,83,65,37,29.65,29.56,9,8,9,0.00
2014-10-6,60.3,55.7,44.4,53.7,45.9,27.4,79,70,51,29.41,29.39,8,8,0,0.00
2014-10-7,64.4,58.9,32.0,54.8,48.9,-58.7,79,72,1,29.56,29.30,9,8,9,0.00
2014-10-8,67.5,50.1,30.9,53.1,22.3,-58.7,79,52,1,29.56,29.24,9,8,9,0.00
2014-10-9,69.8,55.5,30.9,54.9,45.7,25.8,82,71,43,29.56,29.30,9,8,9,0.00
2014-10-10,63.3,58.4,32.0,54.4,47.4,-40.6,79,72,3,29.56,29.33,9,8,9,0.08
2014-10-11,65.5,54.3,30.9,55.3,35.0,-58.7,80,60,1,29.56,29.33,9,8,9,0.12
2014-10-12,61.9,54.3,30.9,53.3,42.2,-59.4,82,72,1,29.56,29.33,9,8,9,0.20
2014-10-13,60.3,56.0,32.0,53.0,45.9,-40.6,80,73,3,29.56,28.97,9,8,9,1.10
2014-10-14,60.6,53.6,32.0,50.4,41.5,-40.6,80,70,3,29.56,28.79,9,8,9,0.16
2014-10-15,54.1,51.0,32.0,46.9,38.8,-40.6,80,72,3,29.56,28.76,9,8,9,0.00
2014-10-16,64.4,57.3,30.9,51.1,42.1,-41.4,80,62,3,29.56,29.18,9,8,9,0.08
2014-10-17,61.7,58.3,32.0,54.2,49.7,-40.6,80,75,3,29.56,28.94,9,8,9,0.28
2014-10-18,65.5,58.8,32.0,54.7,45.4,-47.5,80,68,2,29.56,29.12,9,8,9,0.35
2014-10-19,66.4,60.3,32.0,54.6,50.9,27.4,86,72,45,29.56,29.00,9,8,9,0.71
2014-10-20,64.4,58.0,32.0,52.6,49.0,-35.6,80,74,4,29.56,29.03,9,8,9,0.43
2014-10-21,60.6,55.0,44.4,52.6,47.7,27.4,79,77,51,29.56,29.09,9,8,9,0.31
2014-10-23,60.6,50.2,30.9,52.6,31.9,-58.7,79,60,1,29.56,29.03,9,8,9,0.35
2014-10-24,58.8,49.6,32.0,47.8,33.5,-40.6,81,61,3,29.56,29.03,9,8,9,0.00
2014-10-25,57.2,47.7,30.9,50.7,25.0,-59.4,80,57,1,29.56,28.53,9,8,9,0.98
2014-10-26,55.4,45.0,-13.7,46.7,28.4,-59.4,95,64,1,29.56,29.00,9,8,9,0.55
2014-10-27,57.2,49.0,32.0,45.5,31.2,-40.6,80,60,3,29.56,29.09,9,8,9,0.59
2014-10-28,61.7,52.7,30.9,53.9,38.0,-48.2,85,70,2,29.56,28.97,10,8,11,0.39
2014-10-29,61.0,55.0,32.2,51.8,45.5,-40.6,80,71,51,29.56,29.18,9,8,9,0.00
2014-10-30,59.7,51.2,32.0,53.2,36.3,-40.6,80,69,3,29.56,29.03,9,8,9,1.22
2014-10-31,55.0,43.7,30.9,46.9,14.4,-59.4,81,50,1,29.56,29.00,9,8,9,0.04
2014-11-1,56.3,44.6,32.0,48.5,31.9,-58.7,83,72,1,29.56,29.24,9,8,9,0.00
2014-11-2,55.9,51.4,32.0,48.8,45.1,27.4,85,79,77,29.56,29.30,9,8,9,0.47
2014-11-3,58.6,53.7,32.0,52.5,44.1,-47.5,85,75,2,29.56,29.18,9,8,9,1.42
2014-11-4,59.2,54.3,32.0,52.5,43.4,-58.7,80,71,1,29.56,29.21,9,8,9,0.04
2014-11-5,59.2,50.1,30.9,52.3,25.9,-59.4,80,62,1,29.56,29.24,8,8,8,0.04
2014-11-6,59.4,58.6,57.7,53.0,52.3,27.4,80,79,78,29.56,28.97,9,8,9,0.43
2014-11-7,44.4,43.8,41.5,35.8,29.3,27.4,80,57,51,29.68,29.56,9,8,9,0.43
2014-11-8,56.1,43.9,32.0,47.4,27.4,-58.7,83,65,1,29.65,29.33,9,8,9,0.00
2014-11-9,57.0,48.5,32.0,46.7,35.6,-35.6,85,65,4,29.56,29.15,13,8,13,0.87
2014-11-10,52.9,44.3,32.0,40.8,26.3,-40.6,83,55,3,29.56,29.33,9,8,9,0.00
2014-11-11,44.4,41.7,32.0,28.0,16.3,11.1,85,38,28,29.56,29.41,10,8,10,0.00
2014-11-13,44.4,39.2,39.2,27.4,7.2,7.1,51,26,26,29.56,29.21,9,8,9,0.00
2014-11-14,44.4,39.2,39.2,7.1,7.1,7.1,26,26,26,29.56,29.21,9,8,9,0.00
2014-11-15,44.4,39.2,39.2,7.1,7.1,7.1,26,26,26,29.56,29.21,9,8,9,0.00
2014-11-16,44.4,39.9,39.2,27.4,9.9,7.1,51,29,26,29.56,29.21,9,8,9,0.00
2014-11-17,44.4,39.2,39.2,7.1,7.1,7.1,26,26,26,29.56,29.21,9,8,9,0.00
2014-11-18,44.4,39.2,39.2,27.4,7.2,7.1,51,26,26,29.56,29.21,9,8,9,0.00
2014-11-19,44.4,39.2,39.2,7.1,7.1,7.1,26,26,26,29.56,29.21,9,8,9,0.00
2014-11-22,48.4,45.9,44.6,39.8,38.9,27.4,79,76,72,29.56,29.35,9,8,9,0.08
2014-11-23,54.1,47.5,41.4,44.9,37.3,27.4,81,69,46,29.59,29.27,9,8,9,0.24
2014-11-24,54.3,47.1,32.0,48.6,35.8,-47.5,81,74,2,29.56,29.33,9,8,9,0.43
2014-11-25,56.1,51.9,32.0,49.9,40.9,-47.5,83,73,2,29.56,29.39,9,8,9,0.39
2014-11-26,55.9,48.0,30.9,52.1,30.2,-40.6,87,67,3,29.56,29.06,10,8,10,0.43
2014-11-27,57.7,53.4,30.9,53.9,45.9,-59.4,90,80,1,29.56,28.91,10,8,10,0.91
2014-11-28,55.2,54.9,54.9,52.0,52.0,27.4,90,90,90,29.56,28.91,10,8,10,0.00
2014-12-2,44.4,37.8,32.0,28.8,20.6,15.1,86,52,37,29.56,29.09,9,8,9,0.00
2014-12-3,47.1,41.7,38.1,27.4,21.2,15.6,55,44,32,29.56,28.97,9,8,9,0.00
2014-12-4,48.0,43.1,32.0,41.2,25.5,-40.6,82,64,3,29.56,29.00,9,8,9,0.08
2014-12-5,52.9,45.0,32.0,47.5,25.1,-40.6,85,65,3,29.56,29.03,9,8,9,0.28
2014-12-6,54.7,50.2,32.0,48.3,38.7,-58.7,83,75,1,29.47,29.03,8,8,8,0.94
2014-12-7,55.4,48.2,32.0,45.3,35.5,-40.6,85,68,3,29.56,29.18,9,8,9,0.00
2014-12-8,54.3,46.4,-74.0,48.5,42.9,-40.6,85,76,1,29.56,28.97,9,8,9,0.94
2014-12-9,57.6,54.0,32.0,51.0,45.2,-40.6,84,76,3,29.56,28.88,14,8,15,1.34
2014-12-10,56.8,54.2,32.0,51.7,47.6,27.4,85,78,51,29.56,28.53,9,8,9,0.28
2014-12-11,54.5,54.1,44.4,47.8,47.0,27.4,78,77,51,29.56,28.53,9,8,9,0.00
2014-12-12,50.7,45.8,32.0,44.4,38.1,-47.5,83,77,2,29.35,28.88,8,8,8,0.24
2014-12-13,49.3,42.7,32.0,44.0,33.7,-40.6,83,77,3,29.56,29.35,9,8,9,0.00
2014-12-14,48.2,42.3,32.0,37.9,24.6,-40.6,85,57,3,29.56,29.21,9,8,9,0.00
2014-12-15,47.8,43.7,32.0,38.9,29.6,-40.6,77,59,3,29.56,29.12,9,8,9,0.24
2014-12-16,49.1,42.5,32.0,42.5,18.3,-40.6,81,57,3,29.56,29.09,9,8,9,0.28
2014-12-17,49.3,45.6,32.0,43.7,33.5,-40.6,82,71,3,29.56,29.12,9,8,9,0.59
2014-12-18,50.2,46.4,32.0,44.7,37.1,-40.6,85,77,3,29.56,28.94,9,8,9,0.55
2014-12-19,48.6,46.3,44.6,43.0,40.7,27.4,83,81,78,29.56,29.06,9,8,9,0.59
2014-12-20,55.0,50.1,44.4,50.3,44.8,27.4,84,82,51,29.56,28.71,10,8,10,0.87
2014-12-21,55.0,48.7,32.0,44.8,25.5,-58.7,77,57,1,29.56,29.00,9,8,9,0.00
2014-12-22,50.2,45.2,32.0,42.4,37.4,-40.6,81,76,3,29.74,29.53,9,8,9,0.00
2014-12-23,51.4,45.8,32.0,46.8,30.4,-40.6,84,69,3,29.65,29.39,9,8,9,0.63
2014-12-24,48.6,45.8,39.9,40.0,34.9,27.4,82,67,49,29.56,29.27,10,8,10,0.20
2014-12-25,49.6,46.2,32.0,37.5,28.0,-35.6,76,52,4,29.65,29.41,11,8,11,0.00
2014-12-26,45.1,45.1,44.6,38.0,38.0,27.4,76,76,76,29.71,29.56,9,8,9,0.00
2014-12-27,48.7,33.6,-40.5,42.4,21.5,-50.6,84,62,44,29.56,29.44,12,8,12,0.08
2014-12-28,47.1,38.9,-40.5,34.8,28.0,-50.6,83,66,48,29.59,29.44,9,8,9,0.00
2014-12-29,44.4,38.7,38.7,31.7,31.7,27.4,76,76,76,29.56,29.50,9,8,9,0.00
2014-12-30,44.4,38.7,38.7,31.7,31.7,27.4,76,76,76,29.56,29.50,9,8,9,0.00
2014-12-31,44.4,39.1,38.7,31.7,31.4,27.4,76,74,51,29.56,29.50,9,8,9,0.00
2015-1-1,44.4,38.7,38.7,31.7,31.7,27.4,76,76,76,29.56,29.50,9,8,9,0.00
2015-1-2,104.4,43.1,32.0,90.2,36.3,27.4,83,77,65,29.85,29.56,9,8,9,0.00